DECAYED

STARLINK-1689, 46372 (Decayed)

Orbit data source: Space-Track

STARLINK-1689, 46372 was a payload satellite owned by SpaceX/Seattle (US) in LEO that was launched on Thu, 03 Sep 2020 UTC via an FALCON 9 launch vehicle from the Air Force Eastern Test Range (AFETR). Payload-class satellites include a variety of spacecraft equipped with specific instruments for various scientific and technological missions. These include communications satellites like Starlink; space stations such as the ISS; scientific satellites like the Hubble; Earth observation satellites from companies like Planet Labs, Umbra, and HawkEye 360; GPS; miniature CubeSats for education and research; and military/defense satellites.

Not visible in the next 10 days
Identifier
46372, 2020-062AZ
Orbit
Decayed
Country
Flag of USUS
Related business
Manufacturer
SpaceX/Seattle
Mission
Decayed Commercial Communications
Bus & Motor
STARLINK, Unknown motor
Mass
260 kg wet, ~248 kg dry
Launch date (UTC)
2020-09-03 (6 years ago)
Launch vehicle
FALCON 9
Launch site
Air Force Eastern Test Range (AFETR)
Object type
Payload
Rocket body
Debris
Shape & HBR
Box + 1 Pan, 10.1 m
Radar Cross Section
13.562 m², Large (>1 m²)

Expand to show TLE details & history
Last TLE update: 9 months ago

TLE from 9 months ago
0 STARLINK-1689
1 46372U 20062AZ  25249.87822030  .06333975  12247-4  93903-3 0  9997
2 46372  53.0123  29.2981 0011415 298.9665  61.0234 16.33461248277905
Epoch: 2025-09-06T21:04Z
TLE epoch observation values (Epoch: 2025-09-06T21:04:38.233Z)
Latitude
0.00001°
Longitude
86.93307°
Altitude
180.556 km
Speed
7.801 km/s
True Right ascension
01h 57m 11s
True Declination
0° 00' 00"
Sunlit
Object was in full shadow at epoch
Visualization orbit readout
Latitude
Unknown
Longitude
Unknown
Altitude
Unknown
Speed
Unknown
Apparent Right ascension
Unknown
Apparent Declination
Unknown
Sunlit
N/A
Visualization observer readout
Local Sidereal Time
21:34:47
Azimuth
Unknown
Elevation
Unknown
Doppler factor
Unknown
Orbital elements
Apogee altitude
191.037 km
Perigee altitude
176.057 km
Semi-major axis
6,561.684 km
Eccentricity
0.00114
Inclination
53.0123°
RAAN
29.2981°
Arg. of periapsis
298.9665°
True anomaly
61.13791°
Mean anomaly
61.0234°
Eccentric anomaly
61.08065°
Mean motion
4.08338 °/min
Orbital period
88.16 mins
BSTAR
0.00093903
Loading maneuver chart data...
Computing Atmospheric mass density...

Documentation

Showing up to 5 results
|